Regional Weather Roundup
Issued by NWS Lake Charles, LA

Home | Current Version | Previous Version | Text Only | Print | Product List | Glossary On
Versions: 1 2 3 4 5 6 7 8 9 10 11 12 13 14 15 16 17 18 19 20 21 22 23 24 25 26 27 28 29 30 31 32 33 34 35 36 37 38 39 40 41 42 43 44 45 46 47 48 49 50
088
ASUS44 KLCH 181010
RWRLCH
REGIONAL WEATHER ROUNDUP
NATIONAL WEATHER SERVICE LAKE CHARLES LA
400 AM CST WED JAN 18 2017

Note: "fair" indicates few or no clouds below 12,000 feet with no
significant weather and/or obstructions to visibility.


ACROSS SOUTHEAST TEXAS

CITY           SKY/WX    TMP DP  RH WIND       PRES   REMARKS
BEAUMONT       CLOUDY    71  68  90 SE10      30.03F FOG
BEAUMONT CITY  CLOUDY    71  69  94 S7        30.04F
ORANGE         CLOUDY   N/A N/A N/A S10G16    30.06S
JASPER         LGT RAIN  62  61  99 E3        30.08F VSB 1
$$

ACROSS CENTRAL LOUISIANA

CITY           SKY/WX    TMP DP  RH WIND       PRES   REMARKS
LEESVILLE      CLOUDY    61  59  94 E3        30.07S FOG
FULLERTON      RAIN      60  60 100 SE3       30.06S FOG
ALEXANDRIA INT CLOUDY    60  58  92 E5        30.07F
ESLER FIELD    CLOUDY    60  58  92 E3        30.09F
DERIDDER       DRIZZLE   61  60  96 CALM      30.09S
OAKDALE        CLOUDY    63  62  97 E5        30.07F FOG
OPELOUSAS      CLOUDY    67  66  95 SE8G17    30.09S
$$

ACROSS SOUTHWEST AND SOUTH CENTRAL LOUISIANA

CITY           SKY/WX    TMP DP  RH WIND       PRES   REMARKS
SULPHUR        CLOUDY    70  69  99 SE8       30.07S FOG
LAKE CHARLES   CLOUDY    70  69  97 S8        30.07R
CHENNAULT INT  CLOUDY    69  69  99 S6        30.07S
CAMERON PHI    FOG       64  64 100 SE9       30.05F VSB 1/4
DEQUINCY       CLOUDY    63  63  99 CALM      30.07S FOG
JENNINGS       NOT AVBL
LAFAYETTE      CLOUDY    71  69  93 VRB5      30.09F
NEW IBERIA     CLOUDY    69  67  93 SE8       30.10F FOG
ABBEVILLE      PTSUNNY   66  66 100 SE7       30.09F FOG
PATTERSON      CLOUDY    68  68 100 SE5       30.11S
SALT POINT     NOT AVBL
$$

SELECTED SITES ACROSS THE REGION

CITY           SKY/WX    TMP DP  RH WIND       PRES   REMARKS
HOUSTON BUSH   TSTM      61  61 100 NW6       30.04S VSB 1/4
HOUSTON HOBBY  CLOUDY    72  70  93 S13G20    29.99F THUNDER
GALVESTON      CLOUDY    70  69  97 SE10      30.02S FOG
COLLEGE STAT   CLOUDY    51  50  96 N8        30.08S
CONROE         HVY RAIN  60  59  96 CALM      30.05S FOG
HUNTSVILLE     CLOUDY    55  53  93 NW6       30.07S
LUFKIN         RAIN      56  55  97 CALM      30.06F FOG
SHREVEPORT     HVY RAIN  53  52  96 NE12      30.09F FOG
MONROE         CLOUDY    54  52  93 N7        30.15S
NATCHEZ MS     CLOUDY    57  54  88 CALM      30.11F
BATON ROUGE    FOG       64  64 100 E5        30.11S VSB 1/4
N.O. INTL ARPT FOG       68  68 100 S6        30.12S VSB 1/2
SLIDELL        FOG       67  67 100 CALM      30.13R VSB 3/4
$$

MARINE REPORTS

STATION/POSITION TIME  SKY/WX   TEMP    WIND        PRES    VSBY
                                AIR SEA DIR/SP/G
                 (UTC)          (F)     (DEG/KT/KT) (MB)    (MI)
BUOY 30 S HIGH I 0950            69 64  140/ 10/ 12 1016.5F
WVE H/P(F/S)=  3/ 6

SEA RIM ST PARK  0900            64     130/ 10/ 11 1018.1S
PORT ARTHUR      0942               63  150/  7/ 11 1017.6S
SABINE PASS N    0942            66 65  140/ 11/ 12 1018.7F
TEXAS POINT      NOT AVBL
CALCASIEU PASS   0942            64 63  140/  8/ 10   N/A
LK CHARLES BEACH 0948            70 60              1018.5R
MARSH ISLAND     0900            66                   N/A
FRESH WATER LOCK 0948            67 70   90/  5/  7 1019.5S
AMERADA PASS     0948            67 53  120/  3/  4 1019.1F
$$




USA.gov is the U.S. government's official web portal to all federal, state and local government web resources and services.